West Lebanon, NH

10:23 AM EST on February 27, 2017 (GMT -0500)
Lebanon Municipal

Weather History for KLEB - August, 2013

Change the Weather History Date:

Thursday, August 1, 2013

  Actual Average Record
Temperature  
Mean Temperature 68 °F -  
Max Temperature 82 °F 81 °F 98 °F (1933)
Min Temperature 55 °F 58 °F 39 °F (1964)
Cooling Degree Days 3    
Growing Degree Days 18 (Base 50)    
Moisture  
Dew Point 59 °F    
Average Humidity 89    
Maximum Humidity 100    
Minimum Humidity 47    
Precipitation  
Precipitation 0.23 in - - ()
Sea Level Pressure  
Sea Level Pressure 29.95 in    
Wind  
Wind Speed 2 mph (South)    
Max Wind Speed 13 mph    
Max Gust Speed 20 mph    
Visibility 4 miles    
Events Fog , Rain    
Averages and records for this station are not official NWS values.
T = Trace of Precipitation, MM = Missing Value Source: NWS Daily Summary

Daily Weather History Graph

Daily Weather History Graph

Search for Another Location

Airport or City:

Trip Planner

Search our weather history database for the weather conditions in past years. The results will help you decide how hot, cold, wet, or windy it might be!

Date:

Astronomy

Aug. 01, 2013 Rise Set
Actual Time 5:38 AM EDT 8:11 PM EDT
Civil Twilight 5:05 AM EDT 8:44 PM EDT
Nautical Twilight 4:25 AM EDT 9:24 PM EDT
Astronomical Twilight 3:38 AM EDT 10:11 PM EDT
Moon 1:11 AM EDT (8/1) 4:19 PM EDT (8/1)
Length of Visible Light 15h 38m
Length of Day
14h 33m
Waning Crescent, 23% of the Moon is Illuminated
Aug 1
Waning Crescent
Aug 6
New
Aug 14
First Quarter
Aug 20
Full
Aug 28
Last Quarter

Hourly Weather History & Observations

Time (EDT) Temp. Heat Index Dew Point Humidity Pressure Visibility Wind Dir Wind Speed Gust Speed Precip Events Conditions
12:53 AM 59.0 °F - 57.0 °F 93% 30.02 in 8.0 mi Calm Calm - N/A   Partly Cloudy
1:53 AM 57.9 °F - 55.9 °F 93% 30.01 in 4.0 mi Calm Calm - N/A   Clear
2:15 AM 57.2 °F - 55.4 °F 94% 30.03 in 1.8 mi Calm Calm - N/A   Clear
2:25 AM 57.2 °F - 55.4 °F 94% 30.03 in 4.0 mi Calm Calm - N/A   Clear
2:43 AM 57.2 °F - 55.4 °F 94% 30.02 in 3.0 mi Calm Calm - N/A   Partly Cloudy
2:51 AM 57.2 °F - 55.4 °F 94% 30.02 in 2.0 mi Calm Calm - N/A   Mostly Cloudy
2:53 AM 55.9 °F - 54.0 °F 93% 30.00 in 2.0 mi Calm Calm - N/A   Mostly Cloudy
2:59 AM 57.2 °F - 55.4 °F 94% 30.02 in 0.8 mi South 3.5 mph - N/A   Mostly Cloudy
3:06 AM 55.4 °F - 55.4 °F 100% 30.02 in 2.0 mi Calm Calm - N/A   Overcast
3:14 AM 57.2 °F - 55.4 °F 94% 30.02 in 5.0 mi Calm Calm - N/A   Overcast
3:39 AM 57.2 °F - 55.4 °F 94% 30.01 in 1.8 mi Calm Calm - N/A   Overcast
3:46 AM 57.2 °F - 57.2 °F 100% 30.01 in 0.8 mi Calm Calm - N/A   Mist
3:53 AM 57.9 °F - 57.0 °F 97% 29.99 in 0.8 mi Calm Calm - N/A   Mist
4:01 AM 57.2 °F - 57.2 °F 100% 30.00 in 0.2 mi Calm Calm - N/A Fog Fog
4:53 AM 57.9 °F - 57.9 °F 100% 29.98 in 0.2 mi Calm Calm - N/A Fog Fog
5:09 AM 57.2 °F - 57.2 °F 100% 30.00 in 0.5 mi Calm Calm - N/A Fog Fog
5:33 AM 59.0 °F - 57.2 °F 94% 30.00 in 0.2 mi Calm Calm - N/A Fog Fog
5:53 AM 59.0 °F - 57.9 °F 96% 29.98 in 0.2 mi ENE 3.5 mph - N/A Fog Fog
6:48 AM 59.0 °F - 57.2 °F 94% 30.01 in 0.8 mi NNE 3.5 mph - N/A   Mist
6:53 AM 59.0 °F - 57.9 °F 96% 29.99 in 0.5 mi Calm Calm - N/A Fog Fog
6:57 AM 59.0 °F - 57.2 °F 94% 30.01 in 3.0 mi Calm Calm - N/A   Overcast
7:01 AM 59.0 °F - 57.2 °F 94% 30.01 in 1.0 mi Calm Calm - N/A   Overcast
7:23 AM 59.0 °F - 59.0 °F 100% 30.01 in 0.2 mi Calm Calm - N/A Fog Fog
7:31 AM 59.0 °F - 59.0 °F 100% 30.01 in 0.5 mi Calm Calm - N/A Fog Fog
7:33 AM 59.0 °F - 59.0 °F 100% 30.01 in 0.2 mi Calm Calm - N/A Fog Fog
7:53 AM 60.1 °F - 59.0 °F 96% 29.99 in 0.8 mi Calm Calm - N/A   Mist
7:55 AM 60.8 °F - 59.0 °F 94% 30.00 in 1.0 mi Calm Calm - N/A   Overcast
8:04 AM 60.8 °F - 59.0 °F 94% 30.00 in 0.8 mi Calm Calm - N/A   Overcast
8:23 AM 60.8 °F - 59.0 °F 94% 30.00 in 1.5 mi Calm Calm - N/A   Overcast
8:53 AM 64.0 °F - 60.1 °F 87% 29.97 in 7.0 mi Calm Calm - N/A   Mostly Cloudy
9:12 AM 64.4 °F - 60.8 °F 88% 29.98 in 10.0 mi Calm Calm - N/A   Scattered Clouds
9:53 AM 70.0 °F - 61.0 °F 73% 29.94 in 10.0 mi NW 3.5 mph - N/A   Clear
10:53 AM 75.0 °F - 63.0 °F 66% 29.91 in 10.0 mi WNW 3.5 mph - N/A   Clear
11:53 AM 79.0 °F - 62.1 °F 56% 29.88 in 10.0 mi Variable 6.9 mph - N/A   Scattered Clouds
12:53 PM 81.0 °F 81.3 °F 59.0 °F 47% 29.86 in 10.0 mi SW 10.4 mph 19.6 mph N/A   Partly Cloudy
1:53 PM 78.1 °F - 60.1 °F 54% 29.85 in 10.0 mi South 10.4 mph - N/A   Overcast
2:53 PM 75.9 °F - 62.1 °F 62% 29.84 in 10.0 mi South 6.9 mph - N/A   Overcast
3:53 PM 71.1 °F - 64.9 °F 81% 29.86 in 3.0 mi SSE 6.9 mph - 0.02 in Rain Light Rain
4:53 PM 68.0 °F - 66.0 °F 93% 29.87 in 2.5 mi South 9.2 mph - 0.11 in Rain Light Rain
5:33 PM 68.0 °F - 64.4 °F 88% 29.88 in 4.0 mi South 8.1 mph 17.3 mph 0.06 in Rain Light Rain
5:48 PM 68.0 °F - 64.4 °F 88% 29.88 in 2.5 mi South 11.5 mph - 0.07 in Rain Light Rain
5:53 PM 66.9 °F - 64.0 °F 90% 29.86 in 3.0 mi South 11.5 mph - 0.07 in Rain Light Rain
6:31 PM 66.2 °F - 64.4 °F 94% 29.87 in 6.0 mi South 5.8 mph - 0.01 in   Overcast
6:53 PM 66.9 °F - 64.0 °F 90% 29.85 in 7.0 mi South 3.5 mph - 0.01 in   Overcast
7:53 PM 66.9 °F - 63.0 °F 87% 29.85 in 9.0 mi South 9.2 mph - N/A   Overcast
8:53 PM 66.9 °F - 63.0 °F 87% 29.85 in 10.0 mi South 12.7 mph - N/A   Overcast
9:53 PM 66.0 °F - 62.1 °F 87% 29.84 in 6.0 mi South 9.2 mph - 0.02 in Rain Light Rain
10:53 PM 66.0 °F - 62.1 °F 87% 29.83 in 10.0 mi South 10.4 mph - 0.00 in   Overcast
11:53 PM 66.0 °F - 62.1 °F 87% 29.82 in 10.0 mi South 6.9 mph - N/A   Overcast